FLOCK 3P-82 (42046 NORAD) Tracking and Keplerian Element Data

This shows tracking and keplerian element data for the satellite.

Feedback or suggestion? Click here.




ElementValue
Catalog42046
NameFLOCK 3P-82
Epoch Orbit5475
Epoch Day46.14445679
Epoch Year2018
RAAN111.8091
Inclination97.4678
Eccentricity0.0009832
Argument of Perigee70.2465
Mean Anonmoly289.9832
Mean Motion15.24125769
Decay Rate2.916E-05
L11 42046U 17008DC 18046.14445679 .00002916 00000-0 12282-3 0 9997
L22 42046 97.4678 111.8091 0009832 70.2465 289.9832 15.24125769 54750

Live tracking and technical data element details for FLOCK 3P-82 (NORAD 42046). FLOCK 3P-82 can be tracked NOW for your location showing map with azimuth and elevation plus other details from your city location.

Track the satellite on the map from your city or location and see movement details for azimuth, elevation, latitude, longitude, range, height, and movement on the map or in text.







IsCatalogInMostPopularTable: catalog: 42046, numindb: 154
Update: records affected: 1



GetName: 42046 FLOCK 3P-82

Hit Count: updated at: Fri, 16 Nov 2018 09:38:50 GMT